RH
94 89 85 85 84 84 84 82 81 80 81 80 80 80 80 79 79 81 83 83 82 81 79 78 78 78 77 78 79 79 79 80 82 84 86 86 85 83 76 73 72 71 70 68 65 63 59 55 52 53 59 67 71 73 71 67 66 70 77 79 79 79 81 83 83 83 81 81 80 80 81 81 82 82 81 83 84 85 85 84 82 79 77 76 77 79 80 81 82 82 83 82 82 83 84 88 87 85 83 85 89 91 91
94 89 85 84 84 84 83 83 81 80 80 81 81 80 80 80 81 83 84 84 83 81 78 79 80 81 80 79 78 77 77 79 82 83 84 85 82 78 73 72 71 70 69 67 64 60 55 49 47 50 58 66 70 70 65 63 66 72 78 80 80 80 81 81 81 80 80 81 81 81 81 83 83 83 83 85 85 85 86 86 85 83 80 78 79 79 79 79 80 81 82 81 81 82 84 86 84 82 82 84 87 88 87
90 87 85 85 84 83 82 83 83 83 84 84 84 84 82 83 84 85 85 84 84 82 79 80 81 82 83 80 77 76 77 79 82 83 83 82 78 73 71 71 70 69 69 66 62 56 51 46 46 50 58 64 64 63 62 66 71 77 80 81 83 84 85 82 80 79 80 81 81 81 81 82 83 83 84 86 87 87 87 85 85 85 86 83 81 80 79 81 82 82 82 82 82 82 83 83 82 82 82 83 83 84 84
86 85 84 84 83 83 83 84 84 85 87 86 86 85 84 84 84 85 85 87 85 83 82 78 79 81 83 81 79 77 78 80 82 83 82 80 75 70 70 70 69 68 67 63 59 54 49 47 47 50 55 58 62 66 72 75 78 79 79 82 86 88 86 81 79 79 80 81 80 80 80 82 84 84 83 85 86 87 88 86 85 85 87 87 86 84 81 82 82 82 82 83 83 83 83 83 84 85 83 82 83 84 83
85 85 83 83 84 85 86 86 85 86 87 86 85 83 83 83 83 83 85 88 88 85 83 79 77 77 82 81 79 78 78 80 82 82 80 78 72 68 68 69 68 67 65 61 57 53 50 50 53 58 64 71 77 80 80 79 78 77 78 83 86 87 84 82 81 80 80 80 81 80 80 81 82 83 84 85 85 86 87 86 86 87 86 87 86 84 82 81 82 83 83 84 84 84 85 84 83 83 83 82 83 84 84
85 85 82 85 86 86 85 85 85 85 85 82 80 80 81 81 81 81 82 86 87 86 84 79 76 77 78 79 79 78 78 80 82 81 77 70 67 66 68 68 68 67 64 60 56 54 53 56 62 70 76 79 80 80 80 80 80 81 82 85 85 84 82 80 80 81 81 81 81 81 81 81 81 82 83 84 85 85 85 85 85 85 85 85 85 84 83 82 83 85 87 85 85 85 85 84 83 82 82 82 83 83 84
85 85 83 85 86 86 85 85 84 82 79 77 78 80 80 80 79 79 80 82 84 86 84 81 77 74 74 77 78 78 78 80 81 79 73 65 63 65 68 68 68 66 63 60 57 55 55 61 69 76 80 81 82 84 87 89 91 92 92 88 84 81 80 80 80 81 81 81 82 81 81 80 80 80 80 82 84 85 86 85 84 83 83 82 83 83 83 84 84 84 81 82 82 81 82 82 82 83 82 81 82 82 83
87 87 84 84 85 85 84 82 80 77 75 79 81 82 80 82 82 82 81 80 82 85 87 83 78 74 73 75 77 78 78 79 79 77 70 64 63 66 68 69 68 66 63 60 58 57 59 65 71 77 81 83 86 89 91 90 89 88 87 83 81 80 81 80 81 81 82 82 81 80 80 79 80 80 79 80 82 84 86 86 85 85 84 84 83 83 82 83 83 82 82 83 83 83 83 84 83 83 83 82 81 80 80
87 86 85 85 84 83 80 78 76 76 78 81 84 86 84 87 88 88 86 86 86 87 87 86 81 76 73 74 76 78 77 77 77 74 67 64 64 66 68 69 68 66 64 61 60 60 62 67 72 77 81 84 86 88 87 85 83 82 80 80 80 81 82 81 81 82 83 82 81 80 79 80 80 80 79 79 79 81 84 84 85 87 88 85 84 84 83 84 85 85 85 84 84 85 84 84 84 83 83 82 80 79 79
86 85 84 85 83 80 78 76 77 80 83 87 91 94 93 91 90 88 87 89 88 88 88 87 83 79 74 71 73 77 77 76 75 73 67 65 65 67 69 69 68 67 64 62 62 62 65 68 71 75 80 83 85 86 84 82 80 79 79 80 80 81 81 80 81 82 82 82 81 80 80 82 82 82 80 79 79 80 81 84 85 85 85 85 85 85 84 84 83 83 83 83 82 82 81 82 81 81 81 81 81 81 80
83 82 80 82 81 81 80 80 81 82 84 87 92 97 98 92 89 88 89 88 88 88 90 88 86 82 76 70 71 74 76 75 73 70 67 66 66 67 69 69 68 67 65 63 63 64 66 68 70 72 77 81 83 83 82 80 79 78 77 78 78 78 79 80 82 83 82 81 81 81 81 83 84 83 81 79 78 78 80 82 84 85 85 84 84 83 84 82 82 82 81 82 81 80 81 80 80 80 80 81 81 80 78
80 77 76 77 80 82 83 83 82 82 84 86 90 94 96 91 88 88 88 89 90 91 90 91 89 85 79 70 67 69 74 73 71 68 66 66 67 68 69 69 68 67 65 63 64 65 67 67 68 70 73 76 79 79 78 74 71 70 70 74 76 77 78 79 81 82 80 80 80 81 82 83 84 83 81 81 80 78 79 80 82 83 83 82 83 83 83 82 82 81 81 81 81 80 80 80 80 80 80 81 81 81 81
78 76 76 77 80 83 84 84 84 84 84 85 88 90 91 87 86 86 85 85 87 88 89 90 90 87 82 73 66 64 71 71 69 66 63 64 66 67 69 69 68 67 65 64 64 65 66 66 66 67 68 70 69 66 62 58 58 63 70 75 78 79 80 82 82 81 81 81 80 81 84 82 81 81 81 82 81 79 79 79 80 81 83 82 82 82 82 82 82 81 82 81 81 81 80 80 80 80 81 81 81 81 81
80 81 79 79 81 83 83 83 84 85 84 85 88 90 89 86 84 84 83 83 84 84 85 88 89 88 85 77 67 61 66 69 68 64 60 62 65 67 68 68 68 66 65 64 64 65 65 65 64 64 64 64 65 68 72 77 80 82 82 82 83 82 82 83 82 81 82 80 79 80 85 83 81 80 80 82 82 81 80 79 79 79 80 81 82 82 82 82 82 82 82 82 81 80 80 80 80 80 81 81 81 81 81
85 86 82 80 80 81 81 82 83 83 81 83 89 93 91 87 85 84 84 82 83 85 85 86 88 89 86 79 68 60 61 67 66 62 57 60 64 67 68 68 67 66 65 64 64 65 65 63 63 63 66 70 76 81 84 84 83 82 84 85 85 85 83 83 82 82 80 78 78 80 85 85 83 81 80 81 81 81 82 81 81 80 78 80 81 82 83 82 82 82 80 80 79 79 79 80 81 82 82 82 82 81 81
89 86 83 82 83 84 81 80 79 79 77 83 91 97 94 89 86 84 85 82 83 85 86 86 88 88 85 78 69 61 58 62 62 59 55 59 63 67 67 67 66 65 64 64 64 65 65 63 63 66 72 79 82 84 83 83 83 83 83 83 84 84 83 82 82 80 77 75 76 81 87 87 85 82 80 80 80 80 81 82 82 82 81 80 81 82 82 82 81 80 78 78 79 79 79 81 83 84 84 82 81 81 80
92 85 81 84 89 91 85 81 79 79 79 86 94 99 97 91 88 86 86 85 85 85 85 87 87 86 83 75 68 60 50 51 53 55 55 59 63 65 66 66 65 64 63 63 65 66 66 64 66 71 78 83 84 83 82 82 81 81 80 80 80 81 81 80 79 77 75 73 75 80 87 88 87 84 80 80 80 80 81 81 81 81 81 81 81 81 81 82 81 79 78 79 78 78 79 81 82 83 83 81 80 80 80
90 82 78 85 93 97 91 83 81 82 84 91 97 99 97 92 89 88 87 86 85 83 81 83 83 80 74 66 58 50 39 41 46 51 53 58 62 64 64 64 63 62 61 63 65 67 68 67 71 76 82 84 84 83 82 81 80 79 78 78 77 76 75 74 75 76 77 76 77 80 85 88 88 85 82 81 81 82 81 81 80 81 82 83 82 81 82 81 80 79 79 79 79 78 79 80 81 81 81 80 80 79 80
84 78 75 84 93 98 94 85 80 80 85 95 99 98 95 91 90 90 89 85 80 76 73 73 70 64 53 49 45 41 34 37 43 49 51 56 60 63 63 63 61 59 58 62 66 69 70 71 75 80 84 85 84 83 82 81 80 79 78 76 73 71 71 73 76 79 80 79 79 80 83 84 85 85 84 83 83 82 81 81 81 81 83 83 82 82 83 81 80 80 81 80 80 79 79 80 80 80 81 81 80 80 80
77 75 76 84 93 98 94 85 79 77 82 95 99 97 93 90 91 93 90 81 73 67 63 57 48 39 31 32 34 34 32 36 42 48 51 54 58 61 63 61 58 56 56 62 68 71 73 75 78 82 85 84 83 82 82 82 82 81 79 76 74 73 75 78 80 81 80 80 80 81 79 80 81 83 85 85 84 82 82 82 83 83 83 81 81 82 84 83 81 80 81 82 82 81 80 81 81 81 81 81 81 81 80
74 76 84 90 96 98 92 86 80 77 80 93 97 95 93 90 92 93 88 78 72 65 53 38 28 22 20 24 28 31 32 37 42 46 49 53 56 60 61 60 56 54 55 63 69 74 75 77 81 84 86 84 83 82 83 84 84 83 80 78 78 79 81 83 83 81 78 80 81 81 78 76 77 79 82 83 83 82 82 83 84 84 83 82 82 82 84 84 83 81 80 81 82 83 82 81 81 81 81 81 81 81 81
79 85 91 96 98 97 91 88 84 80 79 89 94 96 93 91 91 89 81 71 66 58 42 28 21 19 19 23 27 31 34 38 41 44 47 51 54 57 60 58 55 53 55 63 71 76 78 79 82 85 86 84 83 82 82 84 84 83 81 79 80 82 83 83 82 80 80 81 82 82 79 76 75 77 79 80 80 80 79 80 83 84 84 84 84 84 85 85 85 83 80 79 80 82 83 82 83 83 82 81 81 82 83
88 96 97 97 97 96 91 88 86 84 80 85 93 97 93 91 89 83 72 62 56 48 36 28 23 22 22 25 29 32 35 38 40 42 44 48 51 55 57 56 55 54 57 65 72 77 79 80 82 85 86 84 83 83 83 84 84 83 80 78 79 81 83 83 82 83 84 84 84 82 81 79 79 79 79 79 79 78 77 78 81 84 85 85 85 85 85 85 86 85 83 79 78 78 80 83 84 84 84 83 82 83 84
91 99 98 95 94 93 90 88 87 85 83 87 93 96 91 88 83 75 63 56 50 44 36 31 28 27 27 29 31 34 36 38 38 39 41 45 48 52 54 55 54 55 59 67 74 78 80 80 82 84 86 85 84 85 87 87 86 83 80 76 77 79 81 82 83 83 84 85 84 83 83 83 83 83 84 83 82 81 80 78 79 81 84 86 87 86 86 85 85 85 83 80 78 77 78 81 83 85 86 85 83 82 83
91 98 98 94 92 90 89 87 86 85 87 90 91 90 85 79 72 64 56 51 47 43 38 35 33 31 31 32 33 35 37 38 38 38 39 42 45 48 51 53 54 56 60 68 74 79 81 80 82 84 86 86 86 87 88 88 87 85 83 81 80 80 79 80 81 81 82 83 83 82 82 84 85 87 87 87 87 85 83 79 75 73 77 84 87 87 87 85 84 83 81 79 78 77 79 82 83 84 86 86 84 83 82
89 95 96 94 91 90 88 87 85 85 89 90 87 82 76 67 59 53 49 46 45 43 40 38 37 35 34 34 34 35 36 37 37 38 39 41 44 46 48 51 54 56 59 66 73 79 81 80 81 84 86 86 86 86 86 87 87 86 85 85 84 82 81 80 79 79 79 80 80 81 82 83 84 86 87 88 88 87 85 83 78 73 67 72 78 84 83 82 81 80 78 77 76 76 80 83 84 85 86 85 85 84 82
87 92 94 93 91 90 89 87 85 85 86 87 84 78 68 55 48 44 43 42 42 42 40 39 38 38 36 36 35 35 35 35 35 36 38 40 43 45 47 50 53 56 58 63 69 76 81 81 81 83 86 87 86 84 81 82 82 83 82 82 82 81 80 80 79 79 79 79 79 79 80 81 82 83 84 85 86 86 84 84 82 79 77 74 72 73 77 79 80 79 77 74 70 70 78 81 82 82 85 85 84 83 80
85 88 91 91 91 90 89 87 84 82 81 82 80 73 58 46 39 38 38 38 39 39 38 39 39 38 38 37 36 36 36 35 35 34 35 38 41 44 46 49 52 56 58 60 65 71 79 81 82 83 86 87 86 84 80 77 77 77 76 74 73 72 71 70 73 77 79 79 78 78 78 79 79 80 81 82 83 83 83 83 82 82 80 79 78 77 76 79 80 81 80 76 68 62 67 78 80 81 85 84 83 81 79
84 86 88 89 89 90 90 87 82 78 74 75 71 63 48 39 35 35 35 36 36 36 36 36 36 36 36 36 36 36 36 36 35 34 33 34 38 42 46 48 51 55 58 60 63 68 75 80 83 84 85 87 86 85 81 77 74 72 71 68 65 61 57 53 53 58 72 77 78 78 77 77 78 79 79 80 81 82 82 83 84 84 82 81 80 79 79 80 81 82 82 81 75 66 58 68 76 82 83 82 80 79 78
86 87 87 87 88 89 91 87 81 74 67 66 60 52 40 36 34 34 34 33 33 33 33 33 33 32 32 32 32 33 34 35 35 34 32 32 35 39 44 47 51 55 58 60 62 65 71 78 82 85 86 87 87 85 83 80 76 73 70 66 61 56 51 46 41 40 45 62 71 75 77 77 77 78 78 79 80 81 81 82 83 84 84 84 82 80 80 81 82 83 82 82 81 77 69 64 67 73 78 79 78 78 78
87 88 88 86 86 87 90 87 80 72 63 58 52 44 35 34 35 35 34 33 33 32 32 32 31 31 29 28 29 30 31 33 34 34 32 31 32 36 42 46 51 55 58 60 62 63 65 70 74 78 81 83 84 84 84 82 79 76 72 68 63 59 55 53 48 43 37 47 60 70 72 73 73 74 75 75 77 79 80 81 82 83 84 84 83 81 79 80 81 83 83 82 81 81 79 76 73 73 76 78 78 78 78
87 88 89 87 85 86 88 87 80 71 61 55 48 40 34 35 35 36 35 34 34 34 34 33 33 32 31 27 27 29 30 32 34 34 33 32 32 35 41 46 52 56 58 60 61 61 61 60 59 58 57 59 63 68 74 78 80 79 76 72 69 66 66 63 57 48 37 38 47 58 67 69 70 70 69 71 74 77 79 79 81 82 83 84 84 83 81 79 79 81 84 84 83 81 80 81 81 81 80 80 79 79 79
85 87 88 86 85 84 85 85 79 70 61 55 48 41 36 36 37 37 37 36 35 35 35 35 36 35 33 28 27 29 31 33 34 35 35 34 33 36 41 48 53 57 58 59 60 59 58 55 50 43 36 31 32 38 49 61 70 76 78 77 75 74 72 65 54 41 29 28 32 42 55 61 65 66 67 68 69 72 74 77 79 80 82 84 84 83 82 79 77 77 80 83 84 82 81 80 79 79 79 79 79 79 79
80 84 86 86 84 83 82 81 75 67 61 58 52 45 40 40 40 40 39 38 37 37 37 37 37 37 35 30 28 29 33 34 35 36 36 36 36 38 43 50 55 58 59 58 58 57 56 54 50 44 38 30 24 22 26 37 48 59 66 69 69 65 59 47 35 24 18 19 21 24 30 43 52 59 62 63 64 66 69 73 76 79 80 81 82 83 83 82 79 76 76 80 83 83 81 81 80 79 77 76 77 78 79
74 79 82 84 83 81 78 75 69 64 62 62 57 52 47 45 44 43 42 40 39 38 38 38 38 38 37 33 30 29 33 35 36 37 37 37 38 41 45 52 56 59 59 58 56 55 54 54 52 49 46 40 34 28 23 24 28 33 38 41 40 37 30 23 17 13 13 14 14 14 13 20 30 43 52 58 61 62 64 68 72 75 78 80 81 82 82 83 83 81 78 78 80 81 80 81 81 79 77 77 77 78 79
69 73 78 80 80 77 72 69 65 62 63 65 64 59 54 51 49 47 45 42 40 39 39 39 39 39 38 36 32 30 32 35 37 37 38 38 40 43 47 53 57 59 60 58 56 54 53 52 52 50 47 44 41 38 33 27 23 20 19 18 17 15 13 12 11 11 11 11 11 10 8 8 11 19 31 42 50 55 59 63 67 71 75 78 79 80 81 82 83 83 82 79 79 78 78 79 80 80 79 78 78 78 80
67 70 75 76 75 71 66 63 61 61 64 69 70 67 62 57 54 51 48 44 42 41 39 39 40 40 39 37 34 31 31 34 36 37 38 39 41 45 49 54 57 60 61 59 56 53 51 50 50 49 47 43 41 40 39 36 31 27 23 21 18 16 15 13 12 11 11 10 10 9 8 6 5 6 10 19 28 36 45 51 56 62 68 72 76 79 80 82 83 83 83 82 80 79 78 78 78 79 79 79 79 79 80
66 69 73 73 71 66 61 59 58 60 65 71 74 73 69 64 59 55 52 48 45 43 41 40 40 40 40 38 35 33 31 32 34 36 37 38 41 46 51 55 58 60 61 58 55 52 49 48 48 47 46 43 40 39 40 40 38 36 34 31 28 25 22 20 17 15 13 12 10 9 8 7 5 4 4 6 9 14 21 27 35 44 53 61 68 74 77 80 82 83 83 83 82 81 79 78 78 77 78 79 79 80 81
67 69 71 71 67 62 58 58 59 62 67 73 77 78 75 70 65 60 55 52 48 45 42 41 41 41 41 39 37 34 31 31 33 36 36 37 40 45 50 55 58 59 58 55 52 50 47 46 46 46 44 42 40 39 39 39 39 38 37 35 33 31 28 26 24 21 19 17 14 12 10 9 7 6 5 4 4 4 6 8 13 18 26 37 47 58 67 75 79 82 84 83 82 82 81 80 79 78 78 79 80 80 81
69 70 71 69 64 60 58 59 61 64 69 74 77 79 79 76 72 66 60 56 51 47 44 42 42 41 42 40 38 35 32 31 32 35 36 37 38 42 48 53 55 55 54 52 50 48 46 46 45 44 43 42 40 39 39 38 38 38 37 36 35 33 31 29 28 27 26 24 21 18 15 13 12 9 7 5 4 4 3 3 4 4 6 10 18 28 40 55 67 77 83 80 79 81 81 81 80 80 80 80 81 81 81
71 72 72 69 65 61 60 61 63 67 71 74 77 78 79 79 77 72 66 60 55 49 45 44 43 42 42 41 39 36 32 30 31 34 36 36 38 40 43 47 50 50 49 48 47 47 46 46 45 44 43 42 41 39 38 38 38 37 37 36 35 34 33 30 29 29 29 30 29 27 23 21 18 15 11 8 6 5 4 4 4 4 4 4 4 7 13 26 43 61 76 78 79 79 80 81 82 82 82 82 82 82 82
73 74 75 72 68 64 63 64 66 69 72 75 76 76 77 78 77 75 71 64 58 52 47 46 44 44 43 42 40 37 33 30 29 31 35 36 37 38 40 42 44 45 46 45 45 45 45 46 45 45 43 43 41 39 38 37 37 37 37 36 36 35 34 32 29 28 28 30 31 31 29 27 23 20 16 12 9 7 6 6 6 6 6 5 4 4 4 9 22 40 61 73 79 80 79 80 82 83 82 82 82 81 81
73 75 76 75 72 69 67 67 69 72 74 76 76 75 75 75 76 75 73 67 60 53 49 47 46 46 44 44 42 39 35 30 28 29 33 36 37 37 38 39 40 42 42 42 43 43 43 44 44 44 43 42 41 39 37 37 36 36 36 36 36 36 35 33 30 28 26 27 28 29 29 27 24 21 18 14 11 9 7 7 7 7 7 7 7 6 5 4 10 22 41 58 70 78 80 79 80 82 82 81 80 79 78
72 74 76 77 76 73 71 71 72 73 76 77 77 76 75 74 74 74 73 68 62 55 51 49 48 47 46 45 44 42 38 32 28 28 30 34 37 38 38 38 38 39 40 40 40 41 41 42 42 42 42 41 40 38 37 36 35 35 35 36 36 36 34 32 30 28 26 25 24 24 23 22 20 18 15 13 11 10 8 8 8 9 9 9 9 8 7 6 6 11 24 39 53 65 75 78 79 79 79 78 77 76 75
72 73 75 77 77 77 75 74 74 75 77 78 79 78 77 76 74 73 71 68 63 58 53 51 49 48 48 47 46 44 41 36 31 28 28 32 36 38 38 38 38 38 38 38 38 39 39 40 40 40 40 39 39 38 36 35 34 34 34 35 35 34 33 32 30 29 27 25 23 22 20 19 17 15 13 12 11 10 9 9 9 9 9 10 10 10 9 8 7 7 12 23 36 48 63 69 72 73 73 73 72 72 71
71 73 74 76 77 78 78 77 77 77 78 79 80 80 80 79 76 73 71 67 63 58 55 53 51 50 49 49 48 46 44 38 34 30 29 31 33 36 38 38 38 38 38 38 37 37 38 38 38 38 38 38 37 36 35 34 33 33 33 33 33 33 33 31 30 29 27 26 24 22 20 19 17 15 14 13 12 12 11 10 10 10 10 10 10 10 10 10 8 7 8 14 24 35 47 57 65 69 69 68 68 67 67
71 72 74 75 76 77 78 79 79 79 79 80 80 81 81 81 78 75 71 66 62 59 56 54 53 52 51 51 50 48 45 40 35 32 30 31 32 34 35 36 37 37 37 37 37 36 36 36 36 36 35 35 34 34 32 32 31 31 31 30 30 31 31 30 29 28 27 26 25 23 22 20 19 18 17 16 16 15 14 13 13 13 12 12 12 11 11 11 10 9 8 11 16 24 33 46 58 65 65 64 64 64 64
72 72 73 74 75 76 78 79 80 80 80 81 81 81 81 81 80 77 72 67 63 60 57 55 54 53 53 53 52 50 47 41 36 32 32 32 33 33 33 34 34 33 33 34 34 34 33 33 33 32 31 31 30 30 29 29 29 29 27 28 28 28 28 27 27 27 27 27 26 24 23 22 21 20 20 20 20 19 19 18 18 17 17 16 15 15 14 13 12 11 9 10 13 17 23 34 46 57 63 63 63 62 62
73 73 73 74 75 76 77 79 80 81 82 81 81 80 80 81 80 79 75 70 65 61 58 55 54 53 54 54 54 53 50 42 37 33 32 34 34 33 33 33 32 31 29 29 29 28 28 27 27 26 25 25 25 25 25 26 26 25 24 24 24 24 23 24 25 26 27 27 26 25 24 23 22 22 22 22 22 22 22 22 22 22 22 21 21 20 19 18 17 15 13 11 12 14 18 24 34 45 56 59 60 60 59
74 75 74 75 76 76 77 79 80 82 82 82 81 80 80 80 80 79 77 72 67 63 58 55 54 54 54 54 55 54 51 44 38 34 35 36 35 34 36 33 31 31 29 27 25 24 23 22 21 19 18 18 19 19 20 21 21 21 20 21 21 20 20 21 23 25 26 26 26 25 25 24 24 24 23 23 23 23 24 24 25 25 25 25 25 25 24 24 23 21 19 16 13 12 12 17 25 33 42 52 57 58 58
75 76 75 76 76 76 76 77 79 81 82 82 81 81 80 80 80 80 79 74 69 64 59 57 56 55 55 55 54 53 50 44 39 36 36 38 37 37 41 34 31 30 29 27 26 24 23 22 21 19 18 18 17 17 17 17 18 18 17 18 18 18 17 20 22 24 25 25 25 24 24 25 25 25 25 24 24 24 24 25 25 26 26 27 27 27 27 27 27 26 25 21 18 14 12 14 19 25 32 43 52 58 61
74 75 75 76 76 75 75 76 78 80 82 83 83 82 81 81 81 80 79 76 72 67 63 60 59 58 56 56 54 52 49 44 40 38 38 38 39 40 40 34 32 37 50 33 29 29 25 24 23 22 21 21 20 20 19 19 18 18 17 17 17 17 17 19 20 22 23 22 22 22 23 24 25 25 26 25 24 24 24 24 25 25 26 27 28 29 29 30 30 29 29 26 22 19 15 15 16 19 23 28 39 52 64
73 74 74 75 75 75 75 76 77 79 81 83 83 83 81 81 81 81 80 77 74 70 65 63 62 61 60 58 55 52 50 45 42 40 40 38 38 38 36 40 42 44 46 39 38 36 27 25 25 25 24 23 22 22 21 21 21 20 20 19 19 18 18 19 20 20 20 19 19 20 21 22 23 24 25 25 24 24 23 24 24 25 25 27 28 30 31 32 32 32 31 30 27 24 21 18 17 18 19 24 30 39 53
72 73 73 74 74 74 75 75 76 78 80 81 82 81 81 81 81 81 80 78 75 71 67 65 64 63 63 61 58 55 51 47 44 42 43 41 39 39 42 47 56 69 84 63 46 38 37 38 32 25 24 24 24 24 24 23 23 22 22 21 21 20 20 20 20 19 19 18 18 18 20 20 21 23 23 23 23 24 24 24 25 26 27 29 30 32 33 34 35 35 34 33 31 29 26 24 22 21 21 28 34 40 46
72 72 72 73 74 74 75 74 74 76 79 80 80 80 80 80 80 80 79 78 76 73 70 67 65 64 64 64 62 59 55 52 47 44 43 44 42 42 51 71 84 88 78 65 52 43 41 54 49 38 29 28 27 27 26 26 26 26 25 25 24 24 23 23 22 22 21 21 21 21 21 22 22 23 24 24 25 25 26 27 28 29 30 31 33 34 35 36 37 37 36 36 35 35 37 35 30 25 23 26 30 37 53
72 72 72 73 74 74 74 73 74 75 77 79 80 80 79 79 79 79 78 78 77 75 73 69 67 66 66 65 65 63 59 56 52 47 44 46 44 40 35 48 52 52 53 50 47 49 58 60 61 54 32 28 27 28 28 29 29 30 30 29 29 29 28 28 28 28 27 27 27 27 27 27 27 27 27 28 29 29 30 30 31 31 32 33 34 36 37 38 38 38 38 37 38 42 49 48 40 30 25 33 44 56 70
74 73 73 74 74 74 74 74 74 75 77 78 79 80 79 79 78 78 78 77 77 76 74 72 70 68 68 67 67 66 62 58 55 52 47 46 46 44 39 33 38 45 45 46 46 49 63 60 55 46 33 29 27 26 25 26 28 29 30 31 32 32 33 33 33 32 32 32 32 32 32 32 32 32 32 32 32 33 33 33 33 34 35 38 40 41 41 40 40 39 39 38 39 43 50 48 41 33 28 32 41 56 77
75 74 74 75 75 75 75 75 75 75 76 77 79 80 80 80 79 79 78 77 77 76 75 74 72 71 69 68 67 67 65 60 58 55 52 47 46 45 44 39 37 34 31 42 44 46 61 68 60 47 40 34 30 28 27 26 26 26 27 28 29 30 31 32 33 33 33 33 33 33 33 33 33 33 34 35 36 36 36 36 37 40 46 55 61 63 61 54 47 42 39 38 39 40 42 39 36 34 33 36 49 66 80
75 75 75 76 76 77 76 75 75 75 76 77 79 81 82 81 80 79 78 77 76 76 75 74 73 72 71 69 68 67 66 64 62 58 55 51 48 46 45 43 40 37 35 35 37 40 47 53 55 52 44 38 34 32 31 30 29 28 27 27 28 28 29 30 30 31 31 31 32 32 32 33 34 37 40 43 44 44 43 42 45 52 63 76 84 85 81 71 58 46 39 38 39 39 39 37 37 36 35 43 59 75 82
75 75 75 76 77 77 77 76 76 76 76 78 80 82 82 81 80 78 78 77 76 76 76 75 74 73 72 70 69 67 67 67 65 62 57 53 50 49 47 44 41 38 37 37 38 40 41 45 52 55 47 44 40 37 36 35 34 32 31 30 30 29 29 30 30 31 32 32 33 34 35 38 43 47 51 53 54 53 52 52 56 63 72 79 82 81 76 65 55 46 41 41 41 40 40 39 38 37 36 47 63 76 79
75 75 75 76 76 76 76 77 77 77 77 78 79 81 81 80 79 79 78 78 77 77 76 76 75 74 73 72 70 69 69 68 67 64 60 56 53 51 50 46 43 40 40 40 40 42 44 46 47 47 47 53 49 43 41 41 40 38 36 35 34 33 33 34 35 36 37 38 39 40 43 47 52 56 59 60 60 60 60 63 67 72 76 76 74 69 63 58 55 54 53 50 46 44 41 40 39 38 37 48 61 71 74
Wind_Speed
17 17 15 14 13 12 12 11 10 10 10 10 10 10 10 10 10 10 9 9 9 9 9 8 9 9 9 9 9 9 9 9 9 9 10 10 11 12 11 11 11 10 10 9 8 8 7 7 7 8 9 9 10 10 10 10 11 11 12 11 11 11 11 11 12 12 12 12 12 12 12 12 12 12 12 12 12 11 11 11 11 10 10 10 10 11 12 12 13 13 13 13 12 12 11 12 13 13 12 11 11 13 15
15 15 14 13 13 12 12 11 11 11 11 11 11 11 11 10 10 10 9 9 9 9 9 9 9 9 9 9 9 9 9 9 9 9 9 10 11 11 11 11 10 10 9 8 8 7 7 7 8 8 9 10 10 10 10 10 11 12 12 11 11 11 11 11 11 12 12 11 11 11 12 12 12 12 12 12 12 12 12 12 12 11 11 10 10 10 11 12 12 12 12 12 12 11 12 12 12 12 11 11 12 13 13
14 14 14 13 13 12 12 12 12 12 12 12 12 11 11 10 10 10 9 9 9 9 9 9 9 9 9 9 10 10 9 9 9 9 9 10 11 11 11 10 10 9 9 8 8 8 8 8 8 9 10 10 10 11 11 12 12 12 11 11 10 11 11 11 11 11 11 11 11 11 11 11 11 11 11 12 12 12 12 12 12 12 11 11 11 11 11 11 12 12 12 12 11 11 12 12 11 11 11 11 11 12 12
14 13 13 13 13 13 12 12 12 12 12 12 12 11 11 10 10 10 9 9 9 9 9 9 9 9 9 10 10 10 9 9 9 9 9 10 11 11 11 10 9 9 9 8 8 8 8 9 10 10 11 12 12 12 13 12 12 11 11 10 10 11 11 11 10 10 10 10 10 10 10 11 11 11 11 11 12 12 13 13 13 12 12 12 12 12 12 11 11 11 11 11 11 11 11 11 12 12 12 11 11 12 12
14 14 13 13 13 13 13 13 12 12 11 11 11 10 10 10 10 9 9 10 10 9 9 9 9 9 9 10 10 10 9 9 9 9 9 10 11 11 10 10 9 9 9 9 8 8 9 10 12 13 13 13 13 13 12 12 11 10 10 10 11 11 11 11 11 10 10 10 10 10 10 10 10 10 10 10 11 11 12 12 13 13 13 13 13 13 13 12 11 11 12 12 12 12 12 12 12 12 13 12 12 13 13
14 14 14 13 13 13 13 12 12 11 11 10 10 9 10 10 10 9 9 9 9 9 9 9 9 9 9 10 10 10 9 9 9 9 10 11 11 11 11 10 10 10 10 9 9 9 9 11 13 14 14 13 13 12 11 10 10 9 9 10 11 11 11 11 10 10 10 10 10 10 10 10 9 9 9 10 10 10 11 11 12 12 12 13 13 13 13 12 12 12 13 13 13 13 12 12 12 12 13 13 13 13 13
14 14 14 13 13 12 12 11 11 10 10 9 9 10 10 10 10 9 9 9 9 8 8 8 8 9 9 10 10 10 9 9 9 9 10 11 11 11 11 10 10 10 10 9 9 9 10 12 14 14 14 12 11 11 10 10 10 9 10 11 11 11 10 10 10 10 10 10 10 10 9 9 9 9 8 8 9 9 10 11 11 11 11 11 12 12 12 12 12 12 12 12 12 12 12 12 12 12 12 12 13 13 13
14 14 14 13 12 12 11 10 10 10 10 10 10 10 10 10 10 10 9 9 9 8 8 8 8 8 9 10 10 9 9 9 9 9 10 11 11 11 11 11 11 10 10 9 9 9 10 12 13 13 13 11 10 10 10 10 11 11 11 12 11 10 10 10 10 10 9 10 10 9 9 9 9 8 8 8 8 9 9 10 10 10 11 11 11 11 11 11 11 11 11 11 12 12 12 12 12 12 12 12 12 12 12
14 14 13 12 11 11 10 10 10 10 10 10 11 11 11 11 11 11 10 9 9 9 8 8 8 8 9 9 10 9 9 9 9 9 10 11 11 11 11 11 10 10 9 9 9 9 10 12 12 12 12 11 10 10 11 11 12 12 12 11 10 10 10 9 9 9 9 9 9 9 9 9 9 9 8 8 7 8 8 9 9 10 10 10 10 11 11 11 11 11 11 11 11 12 12 12 12 12 12 12 12 12 12
14 14 12 11 11 11 10 10 11 11 10 10 11 12 12 12 11 10 10 9 9 8 8 8 8 8 9 9 9 9 9 9 9 9 10 11 11 11 11 11 10 10 9 9 9 10 10 11 11 12 11 11 10 10 11 11 11 10 10 10 9 9 9 9 9 9 9 9 9 9 9 9 9 9 9 8 8 7 8 8 9 9 10 10 10 10 10 11 10 10 11 11 11 11 11 11 11 11 11 11 11 12 12
13 13 12 11 11 11 11 11 11 11 10 10 10 11 11 12 11 10 9 9 9 8 8 8 8 8 8 8 9 9 9 8 8 9 10 11 11 11 11 10 10 9 9 9 9 9 10 10 10 10 11 10 10 10 10 9 9 9 9 8 8 8 8 8 8 9 9 9 9 9 9 9 10 10 9 9 8 8 7 8 8 8 9 9 9 10 10 10 10 10 10 10 10 10 10 11 11 11 11 11 11 11 12
12 12 11 11 11 11 12 11 11 11 11 11 10 9 10 10 9 9 8 8 8 8 8 8 7 7 7 8 8 9 8 8 8 8 10 11 11 11 11 10 10 9 9 9 9 9 9 9 9 9 9 9 9 8 8 8 8 8 8 7 7 7 7 7 8 8 8 9 9 9 9 9 10 10 10 9 9 8 8 7 8 8 8 9 9 9 10 10 9 9 10 10 10 10 10 10 10 10 10 11 11 11 11
12 12 12 12 12 11 11 11 11 11 11 11 10 9 9 9 8 8 7 7 7 7 7 7 7 6 6 7 7 8 8 8 8 8 9 10 11 11 10 10 9 9 8 8 9 9 8 8 8 8 8 7 8 8 8 8 8 8 8 7 6 6 7 7 8 8 8 9 9 9 9 9 9 9 10 10 9 9 8 8 7 8 8 8 8 9 9 9 9 9 10 10 10 10 10 10 10 10 10 10 11 11 11
12 13 13 12 12 11 11 11 11 11 11 10 9 9 9 9 8 8 7 7 7 7 7 7 7 6 6 6 7 7 8 8 7 8 9 10 11 10 10 10 9 9 8 8 8 8 8 7 7 7 7 8 9 9 9 9 9 8 7 6 7 7 7 8 8 8 9 9 9 8 8 8 8 9 9 10 9 9 9 8 8 8 8 8 8 8 9 9 9 9 10 10 10 10 10 10 10 10 10 10 11 11 11
14 13 13 13 12 11 11 10 10 11 11 10 9 10 10 9 9 8 8 8 8 8 8 7 7 7 6 5 6 7 8 8 8 8 9 10 10 10 10 10 9 8 8 8 8 8 7 7 7 7 8 10 10 10 9 9 8 8 7 7 7 8 8 8 8 9 9 8 8 7 7 7 8 8 9 9 9 9 9 9 8 8 8 8 8 8 9 9 9 9 9 10 10 10 9 9 10 10 10 10 10 11 10
15 14 13 13 12 11 10 10 10 11 11 10 10 10 12 10 9 8 8 8 8 8 8 8 8 7 6 5 6 7 8 9 9 9 9 10 10 10 10 9 9 8 8 7 7 7 7 7 7 8 10 10 10 9 8 8 7 7 7 7 7 7 8 8 8 8 8 7 7 7 7 7 8 8 8 8 9 9 9 9 9 8 8 8 8 8 9 9 9 9 9 9 9 9 9 9 9 10 10 10 10 10 10
14 14 14 13 12 10 11 11 11 11 11 10 10 10 12 11 9 8 8 8 8 8 8 8 8 7 7 7 7 8 9 9 10 10 10 10 10 10 9 9 8 8 7 7 7 7 7 8 8 10 10 10 9 8 7 7 7 6 6 6 6 6 7 7 7 7 6 6 6 7 7 8 8 8 8 8 8 8 8 8 8 8 8 8 8 8 8 9 9 9 9 9 9 8 9 9 9 9 9 9 9 9 9
13 15 15 13 11 11 14 14 13 12 12 11 10 10 11 10 8 8 8 8 8 8 8 8 8 8 8 8 8 8 9 9 9 10 11 11 10 10 9 9 8 8 7 8 8 8 8 8 9 10 10 9 8 7 7 6 6 6 5 5 5 5 6 5 5 6 6 6 6 6 7 8 9 8 8 8 8 8 8 8 8 8 8 8 8 8 8 8 8 8 8 8 8 8 8 8 8 8 8 8 8 8 9
13 15 15 14 11 10 14 15 14 14 14 11 9 10 9 8 8 8 7 7 7 7 7 8 8 8 8 8 8 8 8 9 9 9 10 11 10 9 9 8 8 8 8 8 8 8 8 9 10 10 9 9 8 7 6 6 5 5 5 5 5 5 5 5 5 5 6 6 6 6 6 7 8 8 8 8 7 7 7 7 7 7 7 7 7 7 7 8 7 7 7 7 7 7 7 7 7 7 7 7 8 8 8
14 14 15 15 12 10 13 14 14 14 14 10 9 10 9 8 7 7 6 5 5 6 7 7 8 8 7 7 8 8 9 9 9 9 10 10 10 9 9 8 8 8 8 8 9 9 9 10 10 10 9 8 7 7 6 6 5 5 5 5 5 5 5 5 5 6 6 6 6 6 6 6 6 7 7 7 7 7 7 7 6 6 6 6 6 6 7 7 7 7 7 7 7 7 6 6 6 6 6 7 7 7 7
15 15 16 15 13 11 12 13 14 14 13 10 9 10 10 9 8 7 6 6 7 7 7 7 7 6 7 7 8 9 9 10 10 10 10 9 9 9 8 8 8 8 8 9 9 10 10 10 10 10 9 8 7 7 6 6 6 6 6 6 5 5 5 6 6 6 6 6 6 6 5 5 5 5 6 6 6 6 6 6 6 6 6 5 5 5 6 6 6 6 6 6 6 6 6 6 6 5 5 5 6 6 6
17 17 16 14 12 11 12 13 13 14 14 12 11 11 11 10 9 8 8 8 9 9 8 7 6 6 7 8 9 10 10 10 10 10 10 9 9 9 8 8 8 8 9 9 10 10 10 10 10 9 9 8 7 7 6 6 6 6 6 5 5 5 6 6 6 6 6 6 6 6 5 5 4 5 5 5 5 5 5 5 5 5 5 5 5 5 5 5 5 5 5 5 5 5 5 5 5 5 4 4 4 5 5
17 17 15 13 11 11 12 12 12 13 14 14 13 12 11 10 9 9 9 9 10 9 8 7 7 8 8 9 10 10 10 10 10 10 9 9 9 8 8 8 8 8 9 10 11 11 11 11 10 10 9 8 7 7 6 5 5 5 5 5 5 5 6 6 6 6 6 6 6 6 5 5 5 5 4 4 4 4 4 4 4 5 5 5 5 5 5 5 5 4 4 4 4 4 4 4 4 4 4 3 3 4 4
16 15 14 13 12 11 12 12 11 12 13 15 13 12 11 10 10 9 9 9 10 9 8 8 8 8 9 9 10 10 10 10 9 9 9 9 9 8 8 8 8 8 9 10 11 11 11 11 10 10 9 9 8 7 6 6 5 5 5 5 4 4 5 5 5 6 6 6 6 5 5 5 5 5 4 4 4 4 4 3 4 4 4 4 4 4 4 4 4 3 3 3 3 3 3 3 3 3 3 3 3 3 3
16 14 14 14 13 13 12 11 10 11 12 14 13 11 11 10 10 10 10 10 10 10 9 8 9 9 9 9 9 9 9 9 9 8 8 8 8 8 8 8 8 8 9 10 11 11 11 11 10 10 10 9 9 8 8 7 6 6 6 5 5 5 4 4 4 5 5 5 5 5 5 4 4 4 4 3 3 3 3 3 3 3 3 3 3 3 3 3 2 2 2 2 2 2 2 2 2 2 2 2 2 2 3
16 15 15 15 14 13 12 11 10 10 11 12 12 11 10 10 10 10 10 10 10 10 9 9 9 9 9 9 9 9 8 8 8 8 8 8 8 8 8 8 8 8 8 9 10 11 11 10 10 10 10 10 9 9 8 8 8 8 7 6 6 5 5 4 4 4 4 4 4 4 4 4 3 3 3 2 2 2 2 2 2 2 2 2 2 2 2 1 1 1 1 1 1 1 1 1 2 2 2 1 2 2 3
17 16 16 15 15 14 12 11 10 10 10 12 11 10 10 10 11 11 10 10 10 10 9 9 8 8 9 9 8 8 8 7 7 7 8 8 8 8 8 8 8 8 8 8 9 10 10 10 10 10 10 10 9 8 8 8 8 8 8 7 7 6 5 5 4 4 3 3 3 3 3 3 3 2 2 2 1 1 1 1 1 1 1 1 1 1 1 1 0 0 1 1 1 0 1 1 0 1 1 1 2 2 3
17 17 17 16 15 14 13 11 10 10 11 11 11 10 10 10 11 11 10 10 10 9 9 8 8 8 8 8 7 7 7 7 7 7 7 8 8 8 8 8 8 7 7 8 8 9 10 10 10 10 9 9 9 8 7 7 7 7 7 7 7 6 5 4 4 4 3 3 3 2 2 2 2 2 2 1 1 1 0 0 0 0 0 1 1 1 1 1 1 1 2 2 2 1 1 1 1 1 1 2 2 3 3
17 17 17 16 16 15 13 12 11 11 11 11 11 10 10 10 11 10 10 9 9 8 8 8 7 7 7 7 7 7 6 6 6 6 6 7 8 8 9 8 8 7 7 7 7 8 9 10 10 9 9 9 8 7 7 6 7 7 7 7 6 5 4 3 3 2 2 2 2 2 2 2 2 2 1 1 1 1 1 0 1 1 1 1 1 1 2 2 2 2 2 3 3 3 2 2 2 2 2 3 3 4 4
18 17 16 16 16 15 14 13 12 11 11 11 11 11 11 11 11 10 9 9 8 7 7 7 6 6 6 6 6 6 6 6 5 5 6 7 8 9 9 9 8 7 7 7 7 7 8 9 9 9 9 9 8 8 7 7 7 7 7 7 6 5 4 3 2 2 2 0 1 1 1 1 1 1 1 1 1 1 1 1 1 1 2 2 2 2 2 2 3 3 3 4 4 4 4 4 4 4 4 4 4 5 5
18 17 16 16 16 16 15 13 12 11 11 11 11 11 12 12 11 10 9 8 7 7 6 6 5 5 5 5 6 7 6 6 6 5 5 6 7 8 9 9 9 8 7 7 7 7 7 8 9 9 9 10 9 9 9 8 8 8 7 7 6 6 6 6 6 6 5 3 2 1 1 1 1 1 1 1 1 1 1 2 2 2 2 2 3 3 3 3 4 4 4 5 5 5 5 5 5 5 5 5 5 5 6
18 17 16 16 16 16 15 14 13 12 11 11 11 12 12 12 12 11 9 8 7 7 6 5 4 4 4 4 5 6 7 6 6 5 5 6 7 8 9 9 9 8 8 7 7 7 7 7 7 8 8 9 10 10 10 10 10 9 9 9 8 8 9 9 10 9 8 6 5 3 2 2 2 2 2 2 2 2 2 2 2 2 2 3 3 4 4 5 5 5 5 5 6 6 6 6 6 6 6 6 6 6 6
19 18 16 16 16 16 16 15 14 13 12 12 12 12 13 13 12 11 10 9 8 7 6 5 4 3 3 3 5 6 7 6 6 5 5 5 6 8 9 10 9 9 8 8 7 7 6 6 6 6 6 6 8 9 10 11 11 11 11 11 11 11 12 12 12 11 10 9 7 6 5 4 3 3 3 3 3 3 3 3 3 3 3 4 4 4 5 6 6 6 6 6 6 7 7 7 7 7 7 7 7 7 7
19 18 17 16 15 15 16 15 15 14 13 13 13 13 13 13 12 11 11 9 8 7 6 5 4 3 2 3 4 6 7 6 6 5 5 5 6 8 9 10 10 9 9 8 7 7 6 6 5 4 4 4 4 6 7 9 10 11 11 12 12 12 12 12 12 11 10 9 9 9 8 7 6 5 4 4 4 4 4 4 4 4 4 5 5 5 6 6 7 7 7 7 7 7 7 8 8 8 8 8 8 8 8
18 18 17 16 15 15 16 16 15 15 15 14 14 14 14 14 13 12 11 10 9 8 7 6 5 4 2 3 4 5 6 6 6 5 5 5 7 8 9 10 10 10 9 8 7 6 6 5 5 4 3 3 3 4 5 6 7 8 9 10 11 11 11 11 10 9 9 8 9 9 9 9 8 7 6 5 5 5 5 5 5 5 5 6 6 6 6 7 7 8 8 8 8 8 8 8 9 9 9 9 9 9 9
18 17 17 16 16 16 16 16 16 16 16 15 15 15 14 14 13 12 12 11 10 9 8 7 6 5 4 3 4 5 6 6 6 6 5 6 7 8 9 10 10 10 9 8 7 7 6 5 5 5 4 3 3 3 3 4 5 5 6 7 8 8 8 8 8 8 8 8 8 8 9 10 10 10 9 8 7 7 7 7 6 6 6 7 7 7 7 7 8 8 9 9 9 9 9 9 9 9 10 10 10 10 10
17 17 16 16 16 16 16 16 17 17 17 17 16 15 15 14 14 13 12 11 11 10 9 8 7 6 5 4 4 5 6 7 7 7 6 6 7 8 9 10 10 10 10 9 8 7 6 6 6 5 5 4 4 4 4 4 4 4 5 5 6 6 7 7 7 8 8 8 8 8 9 9 9 10 10 10 10 9 9 8 8 8 8 8 8 8 8 8 8 9 9 10 10 10 10 10 10 10 10 10 11 11 11
18 17 16 16 16 16 16 16 17 18 18 17 17 16 16 15 14 13 13 12 11 11 10 9 8 7 6 5 5 5 6 7 8 7 7 7 7 8 9 10 10 10 10 9 9 8 7 7 6 6 6 5 5 5 5 5 5 5 6 6 6 6 7 7 8 8 8 9 9 9 9 9 9 9 10 11 11 11 11 11 11 10 10 9 9 9 9 9 9 9 10 10 11 11 11 11 11 12 11 11 11 11 11
18 17 17 16 16 16 16 17 17 18 18 18 18 17 16 16 15 14 13 13 12 11 11 10 9 8 7 6 6 5 6 7 8 8 8 8 8 9 9 10 10 10 10 9 9 9 8 8 7 7 7 7 6 6 6 6 7 7 7 7 7 7 8 8 8 9 9 9 9 9 9 9 9 9 10 10 11 11 12 12 12 12 12 12 12 11 10 10 10 10 10 11 11 12 12 12 12 12 12 12 12 12 12
19 18 18 17 17 17 17 17 18 18 19 19 18 18 17 16 16 15 14 13 13 12 11 11 10 9 8 7 6 6 7 8 9 9 9 9 9 9 9 10 10 10 10 10 9 9 9 8 8 8 8 8 8 8 8 8 8 8 8 8 8 8 9 9 9 9 9 10 10 10 10 10 10 10 10 10 11 11 12 12 12 13 13 13 13 13 13 12 11 11 11 11 12 12 12 13 13 13 13 13 13 13 13
19 19 18 18 18 18 18 18 18 19 19 19 18 18 17 17 16 16 15 14 14 13 12 11 11 11 10 8 7 7 7 8 9 10 10 10 10 9 10 10 10 10 10 10 10 10 10 9 10 9 9 9 9 9 9 9 9 9 9 10 10 10 10 10 10 10 10 10 10 10 10 10 10 11 11 11 11 12 12 12 12 13 13 13 14 14 14 14 13 12 12 12 12 13 13 13 13 13 13 13 13 14 14
20 20 19 19 18 18 18 19 19 19 19 19 18 18 17 17 16 16 15 15 14 14 13 12 11 11 10 9 8 7 7 8 9 10 11 11 11 10 10 10 11 11 11 11 10 10 10 10 10 11 11 11 11 11 11 11 11 11 11 11 11 11 11 11 11 11 11 11 10 11 11 11 11 12 12 12 12 12 12 13 13 13 13 13 14 14 15 15 15 14 13 13 13 13 13 14 14 14 14 14 14 14 14
21 21 20 19 19 19 19 19 19 19 19 19 18 18 17 17 16 16 16 15 15 14 14 13 12 11 11 10 9 8 8 8 9 10 11 12 12 11 11 11 11 11 11 11 11 11 11 11 11 12 12 12 12 12 12 12 12 12 12 12 12 12 12 13 12 12 12 11 11 11 11 12 12 13 13 13 13 13 13 13 13 13 14 14 14 15 15 15 16 15 15 15 14 14 14 14 14 14 14 14 15 15 15
22 22 21 20 20 20 20 20 20 20 20 19 18 18 17 17 16 16 16 15 15 15 14 13 13 12 12 11 10 9 9 9 9 10 11 12 12 12 12 12 12 12 12 12 12 12 12 12 12 13 13 13 14 13 13 13 13 13 13 13 13 14 14 14 14 13 13 12 12 12 12 13 13 13 14 14 14 14 14 14 14 14 14 15 15 15 16 16 16 17 16 16 16 15 15 15 15 15 15 15 15 16 16
23 23 22 21 21 21 21 21 21 21 21 20 19 18 18 17 16 16 16 16 16 15 15 14 13 13 12 11 11 10 9 9 9 9 11 12 13 13 13 13 12 12 12 12 12 13 13 13 13 14 14 15 15 15 15 15 14 14 14 15 15 15 15 15 15 15 14 14 13 13 13 14 14 14 14 14 15 15 15 15 15 15 15 15 16 16 16 17 17 18 18 18 17 17 17 16 16 16 16 16 16 16 16
24 24 23 22 22 22 22 22 22 22 22 21 20 19 19 18 17 16 16 17 16 16 15 15 14 13 12 12 11 10 10 9 9 10 10 11 12 13 13 13 13 13 13 13 14 14 14 14 15 15 16 16 16 16 16 16 16 16 16 16 16 16 17 16 16 16 15 15 15 14 14 15 14 15 15 15 15 16 16 16 16 16 16 17 17 17 17 17 18 19 19 19 19 19 18 18 18 17 17 17 17 17 17
25 25 24 24 23 23 23 23 23 23 23 23 22 21 20 19 18 17 17 17 17 17 16 15 14 14 13 12 11 11 10 9 9 10 11 11 11 12 13 13 14 14 14 15 15 15 16 16 16 17 17 17 18 18 18 17 17 18 18 18 18 18 18 18 18 17 16 16 16 16 16 16 16 16 16 16 16 17 17 17 17 17 18 18 18 18 18 18 19 20 20 20 20 20 20 19 19 18 18 18 18 18 18
26 25 25 24 24 24 24 24 24 24 24 24 23 22 21 19 18 18 17 17 18 17 17 16 15 14 14 13 12 11 11 10 10 10 10 10 11 11 12 13 13 14 15 15 16 16 17 18 18 18 19 19 19 19 19 19 19 19 19 19 19 20 20 19 19 18 17 17 17 17 17 17 17 17 17 17 18 18 18 18 19 19 19 19 19 20 20 20 20 21 21 22 22 22 21 21 20 19 19 19 19 19 19
26 26 25 25 25 25 25 25 25 25 25 25 24 22 21 19 18 18 17 17 17 17 17 17 16 15 15 14 13 12 11 10 10 9 10 8 8 10 11 12 13 14 15 15 16 17 18 18 19 20 20 20 20 20 20 20 20 21 21 21 21 21 21 20 20 19 18 18 19 19 19 19 19 19 19 19 19 19 20 20 20 20 21 21 21 21 21 22 22 22 22 23 23 23 23 22 21 20 20 19 19 19 20
27 27 27 26 26 26 25 25 25 26 26 26 24 23 21 19 19 18 18 18 18 18 18 17 17 16 15 15 15 14 12 11 10 9 9 7 6 5 5 7 9 11 14 15 16 17 18 19 20 20 20 21 21 21 21 21 22 22 22 22 22 22 22 21 21 20 20 20 20 20 20 20 20 20 20 21 21 21 21 22 22 22 22 23 23 23 23 23 24 24 24 24 24 24 24 24 23 22 21 20 20 20 20
28 28 27 27 27 27 26 26 26 26 26 26 25 23 22 21 20 19 19 19 19 19 19 18 17 17 16 15 14 14 13 12 11 9 4 4 4 3 1 3 4 6 8 10 12 14 16 17 18 19 20 20 21 22 22 22 23 23 23 23 23 23 23 22 22 22 22 22 21 21 22 22 22 22 22 22 23 23 23 24 24 24 25 25 25 25 25 25 25 25 25 25 24 25 25 24 24 23 22 21 20 20 20
28 28 28 28 28 27 27 26 26 26 26 26 25 25 24 22 21 21 20 20 20 20 20 19 17 16 16 15 14 13 13 12 12 11 6 5 5 4 1 2 3 2 3 4 5 7 10 13 15 16 18 19 20 21 22 23 23 24 24 24 24 24 24 24 23 23 23 23 23 23 23 23 23 23 24 24 24 25 25 26 26 27 27 27 27 27 27 27 27 26 26 25 25 25 25 25 25 24 23 22 21 20 19
29 29 28 28 28 28 27 27 27 26 26 25 25 25 25 24 23 22 22 21 21 21 21 20 18 15 14 15 14 14 13 13 13 13 12 7 4 3 1 2 1 0 1 2 3 4 4 6 9 12 13 15 17 18 19 21 22 23 23 24 24 24 24 24 24 24 24 24 24 24 24 24 24 25 25 26 26 27 27 28 28 28 28 28 28 29 28 28 28 27 27 26 26 26 26 26 26 25 24 23 21 20 19
29 29 29 29 28 28 27 27 27 26 26 26 26 25 25 25 24 24 23 23 22 22 22 21 19 16 13 13 14 14 14 14 14 14 14 12 7 2 2 2 1 1 1 2 1 3 3 4 4 5 7 9 11 12 13 16 18 19 20 21 22 23 23 24 24 25 25 25 25 25 25 26 26 26 27 27 28 28 29 29 29 29 29 29 29 30 30 29 29 28 27 27 26 26 26 26 26 26 24 22 21 20 20
30 30 30 29 29 28 28 27 27 27 26 26 26 25 25 26 25 25 24 24 23 23 23 22 21 19 16 14 14 15 15 14 14 15 15 15 12 6 2 2 2 2 2 2 1 1 3 3 4 5 6 6 6 7 8 9 11 13 14 16 18 19 21 22 22 23 24 24 24 24 25 25 26 26 27 27 28 28 28 29 29 29 30 30 30 31 31 30 30 29 29 28 27 26 27 27 27 27 25 22 21 22 24
30 30 30 30 29 28 28 27 27 27 26 26 26 26 25 26 26 25 24 24 23 23 23 23 23 21 19 16 15 15 15 15 14 15 16 16 16 13 8 3 3 1 1 1 1 3 3 3 4 3 4 4 5 7 8 8 8 9 10 11 12 14 15 16 18 18 19 19 20 21 21 22 23 24 24 25 26 26 27 27 28 29 30 30 31 31 32 32 32 31 30 29 28 27 27 28 28 27 25 23 23 25 26
29 30 30 30 29 29 28 27 27 26 27 27 27 26 26 26 25 25 25 24 24 23 23 23 23 23 22 19 17 15 15 15 15 15 16 17 17 17 15 11 7 4 3 2 2 2 1 3 3 2 4 6 8 9 10 10 10 10 10 11 12 12 13 14 14 15 16 16 17 18 18 19 20 21 21 22 23 24 24 25 26 27 27 29 30 31 31 32 32 32 32 31 30 29 28 28 28 26 25 25 27 28 26
29 29 30 30 30 29 28 27 27 26 27 27 27 26 26 25 25 25 25 25 25 24 23 23 23 23 22 21 18 16 15 16 16 16 16 17 18 18 18 17 16 14 10 7 4 2 3 3 2 0 3 6 10 11 12 12 12 12 13 13 14 15 15 15 15 15 16 16 16 17 18 18 19 20 21 21 22 23 23 23 23 24 25 26 27 28 28 29 30 31 32 32 31 31 30 29 27 26 25 26 27 27 24
29 29 29 29 29 29 28 27 26 26 26 26 26 26 25 25 25 25 25 25 25 24 24 24 24 23 23 22 20 18 16 17 17 17 16 16 17 19 20 20 19 18 16 15 12 8 3 1 1 1 1 3 6 10 12 13 13 14 15 15 16 17 17 17 17 17 17 18 18 19 19 20 20 21 21 22 22 23 22 22 23 23 25 26 27 26 25 25 26 28 30 31 31 31 31 29 27 25 25 26 26 24 22
29 28 28 29 29 28 27 26 26 25 25 25 26 26 25 25 25 25 25 24 24 24 24 24 24 24 23 23 22 20 19 18 18 18 17 14 13 16 20 21 21 20 18 16 15 14 11 7 4 2 1 1 3 5 9 13 14 15 14 15 15 16 16 17 17 18 18 19 20 20 20 21 20 20 21 21 22 22 22 23 23 24 26 26 27 26 25 24 25 26 27 27 29 29 30 29 27 26 26 25 25 23 21
29 28 27 28 28 28 27 26 25 24 24 24 25 25 26 26 25 25 25 24 24 24 24 24 24 24 24 24 23 23 21 20 19 19 19 15 11 11 17 19 21 21 20 17 16 15 13 12 11 8 5 2 1 2 4 8 12 14 14 13 13 14 16 17 18 18 19 19 20 20 19 19 19 19 19 20 21 22 23 23 24 24 25 25 25 25 24 24 24 24 23 24 24 26 27 27 27 27 26 26 24 22 20
Wind_Direction
138 138 142 143 143 141 139 140 140 140 138 138 136 133 131 129 129 128 126 122 117 113 110 112 115 117 118 117 115 112 108 103 101 103 108 115 120 123 125 121 116 112 109 105 100 95 92 95 105 118 124 122 118 112 106 100 97 95 94 91 88 84 83 84 82 79 74 71 70 69 67 66 65 64 63 61 62 63 64 63 60 58 58 57 54 52 51 51 52 52 52 52 52 52 53 53 53 52 51 51 46 41 40
136 136 140 142 142 141 142 142 142 141 139 137 136 134 131 129 128 127 126 123 117 112 110 112 113 116 117 117 116 114 110 105 104 106 113 119 124 127 126 122 117 112 108 103 97 92 90 94 108 120 125 123 117 110 102 96 95 95 94 92 90 87 85 84 80 76 73 71 69 68 67 65 64 64 63 60 61 64 63 63 63 63 61 61 58 55 53 52 51 51 50 50 50 51 50 50 50 50 48 45 43 41 40
138 138 140 141 142 143 143 142 141 138 136 134 132 130 130 128 126 126 125 123 118 114 111 111 113 115 116 117 117 115 110 106 105 108 116 123 128 130 128 122 117 112 107 100 95 92 92 99 110 120 124 120 114 105 98 94 92 92 91 91 90 88 85 84 80 75 73 71 70 68 67 65 64 64 63 60 60 61 62 63 64 65 64 64 63 61 58 55 53 52 52 51 52 52 51 51 50 49 47 44 42 41 40
143 143 142 143 144 144 143 141 139 137 134 132 130 129 129 128 128 128 127 124 120 116 113 111 112 115 117 117 116 114 109 106 106 110 119 125 131 133 129 123 117 111 104 99 96 94 97 105 113 117 118 113 107 101 96 93 91 89 88 88 89 88 86 83 80 76 73 71 70 68 67 65 64 64 64 62 60 60 58 59 62 65 65 64 64 64 62 58 56 56 56 55 55 55 54 53 52 50 48 45 43 42 41
144 144 146 146 144 143 141 141 139 137 134 133 133 133 133 133 132 131 129 125 122 118 114 111 112 115 117 118 116 113 109 106 107 113 122 127 132 133 129 124 117 111 105 101 99 99 103 110 114 115 113 109 105 101 98 96 94 92 90 89 88 87 85 82 79 76 74 72 71 69 67 65 64 64 64 63 62 60 58 58 58 59 61 60 61 62 62 60 59 58 58 56 55 55 56 55 52 50 48 47 45 43 42
147 147 149 146 144 143 144 142 140 139 137 138 139 140 141 139 137 135 134 129 125 122 116 112 111 114 119 119 117 113 108 106 108 115 124 130 133 132 128 123 118 112 107 105 104 105 109 115 117 115 112 110 108 106 104 102 99 97 95 88 85 85 84 80 78 78 76 73 71 69 67 66 65 65 65 64 63 63 62 59 58 58 58 57 58 58 59 59 59 57 56 54 54 54 54 53 52 50 48 47 46 45 43
150 150 150 148 147 145 145 143 142 142 143 145 146 146 145 144 141 139 138 135 132 127 120 114 111 114 119 121 119 114 109 107 110 118 126 133 134 132 129 124 120 115 111 109 108 111 116 120 120 118 115 113 113 112 108 98 92 91 91 85 83 82 81 80 79 78 77 74 72 69 67 66 66 66 68 67 65 64 62 61 61 60 59 59 59 58 58 58 57 57 57 54 53 53 53 52 51 49 48 48 46 44 43
151 150 151 152 150 147 146 146 147 149 151 152 151 148 145 144 142 140 140 138 136 131 124 118 114 114 118 122 121 116 110 109 112 120 129 134 135 133 131 127 123 118 115 113 113 117 122 125 124 122 120 119 117 113 103 89 86 87 86 85 84 82 80 81 80 79 77 74 72 69 67 66 66 67 68 70 69 67 65 64 63 62 61 61 61 61 60 59 58 57 56 54 53 52 52 51 50 49 49 48 47 45 44
153 152 154 153 153 152 151 153 154 157 159 157 154 151 148 143 139 136 134 134 133 132 129 122 116 114 117 121 122 119 113 113 116 123 131 136 137 135 133 130 126 122 119 118 119 123 128 130 130 127 125 124 120 113 105 97 92 90 87 86 84 81 79 80 80 79 77 75 72 70 69 69 69 69 70 72 73 72 69 68 65 62 61 62 61 60 60 58 57 56 54 54 52 51 51 51 49 49 49 48 48 47 47
154 156 157 154 154 156 157 158 160 162 164 161 158 155 150 145 141 136 132 128 128 130 129 126 121 117 116 122 124 122 118 117 120 126 134 138 139 138 136 133 129 126 123 122 124 129 134 136 135 133 132 130 125 119 113 109 102 93 85 81 78 77 77 79 81 81 78 76 74 73 72 72 72 71 71 72 74 76 76 72 68 65 64 63 61 60 59 57 55 54 53 52 51 50 50 50 50 50 50 50 50 50 50
156 157 159 158 158 159 160 161 162 163 161 157 157 154 147 144 141 136 132 130 128 127 128 130 127 122 119 123 126 126 123 123 126 132 138 141 142 141 139 136 133 129 127 126 129 134 139 141 141 139 138 135 132 127 120 115 106 96 85 78 75 76 78 81 83 83 80 77 76 76 75 75 74 72 71 72 75 78 80 76 71 67 65 64 62 60 59 57 56 54 53 52 52 51 51 51 52 52 52 53 53 54 53
157 158 161 161 161 161 161 161 160 159 158 156 155 152 143 142 141 141 140 138 134 131 131 133 132 128 125 126 129 131 130 130 133 139 144 146 146 144 142 139 135 131 129 129 133 139 144 146 146 144 141 138 135 131 125 116 104 93 84 79 79 81 83 85 85 84 82 80 78 78 78 77 75 73 72 73 74 77 79 78 75 70 67 65 63 61 59 58 56 55 55 54 54 54 54 55 55 56 56 57 57 57 56
158 159 160 160 160 160 160 158 157 155 154 154 154 152 146 146 146 145 149 150 148 144 142 140 139 138 134 131 133 135 135 137 142 148 151 151 150 147 144 141 137 134 133 133 137 143 148 150 148 144 140 135 130 124 115 105 95 87 82 83 85 87 89 89 88 86 84 82 80 79 80 78 75 74 73 73 74 76 78 79 77 73 69 67 65 63 61 60 59 58 58 58 58 59 59 59 60 60 60 60 60 58 57
159 158 159 159 159 159 158 158 155 154 155 155 155 153 147 150 150 147 148 151 153 153 153 152 151 150 148 141 137 140 142 145 151 157 158 156 153 149 145 142 138 136 136 138 142 146 151 151 148 140 132 125 118 112 105 99 93 89 87 89 89 88 89 89 89 88 85 82 79 78 79 79 78 76 75 74 74 75 77 78 78 76 73 70 67 66 64 63 62 62 62 62 63 63 63 63 63 62 62 62 60 58 55
161 158 158 158 158 159 160 160 158 157 160 163 164 158 147 149 149 145 143 146 149 151 157 162 163 162 162 154 147 146 151 156 163 165 162 159 155 151 148 144 142 141 141 143 146 149 152 150 144 134 125 118 113 108 104 101 96 92 92 93 90 88 89 89 89 86 83 80 78 75 75 80 82 81 77 76 75 75 77 79 79 78 77 74 71 69 68 67 66 65 65 65 65 66 65 64 63 63 62 61 59 56 53
161 160 160 158 159 161 162 163 161 159 162 172 177 164 145 147 148 144 141 144 148 152 159 167 170 170 167 156 149 153 164 171 172 169 163 159 157 155 152 149 146 146 147 148 150 152 152 147 138 130 123 118 114 111 109 106 98 94 94 93 90 87 87 88 86 83 81 80 79 76 72 77 84 85 81 78 77 76 77 79 80 79 79 77 75 73 71 69 69 68 68 68 67 66 65 63 62 61 61 59 57 54 51
161 161 163 162 162 160 158 161 159 158 164 180 181 163 141 143 146 144 144 146 151 158 166 173 175 173 172 167 165 172 181 183 179 171 163 160 159 158 156 153 151 150 152 154 154 154 150 143 134 129 124 120 118 116 114 106 98 93 95 92 88 85 85 85 83 81 81 83 85 81 73 75 82 86 84 82 81 80 78 79 80 80 80 78 77 75 73 71 70 70 70 69 68 66 64 61 59 58 58 57 55 52 50
162 162 165 169 167 158 154 159 162 165 174 182 172 151 141 146 149 148 150 154 160 167 176 180 181 184 191 193 192 192 192 189 182 173 165 162 161 160 158 156 155 155 156 157 157 154 148 140 134 130 126 124 122 119 113 104 95 91 93 91 87 85 86 86 85 86 86 90 90 85 78 76 80 83 84 84 83 82 81 81 81 81 80 79 78 77 75 73 72 71 70 70 68 66 63 61 58 57 57 55 53 51 49
165 165 168 175 174 161 155 162 169 176 183 181 159 140 145 156 160 160 162 165 170 175 180 182 188 197 203 202 200 198 194 187 180 174 170 167 164 162 160 159 158 158 159 160 159 155 147 141 136 133 130 127 124 120 112 102 96 94 94 93 91 90 91 91 92 92 91 93 93 90 83 79 78 79 81 84 84 84 83 82 82 82 82 80 78 77 76 75 73 71 69 69 68 65 63 61 59 58 57 55 53 51 49
169 171 175 181 179 167 161 168 176 183 189 183 153 137 152 168 175 174 175 172 167 167 176 183 192 199 199 197 194 192 188 182 176 172 171 170 168 165 163 162 161 161 162 162 160 155 149 143 139 136 134 131 126 119 110 102 100 99 98 97 96 96 94 94 94 94 93 93 93 93 87 81 78 78 79 81 82 82 83 82 83 83 83 82 80 78 77 77 76 74 71 68 66 65 62 60 59 58 56 55 53 51 49
173 177 184 186 180 169 169 176 182 186 191 186 162 150 162 172 173 168 166 158 154 159 175 181 183 182 180 181 182 182 180 177 174 171 170 170 170 169 166 164 163 162 163 164 161 157 152 147 144 141 137 133 128 121 113 106 104 102 100 99 98 95 93 91 92 93 93 92 93 92 89 84 82 81 79 79 79 80 80 80 80 83 85 85 84 82 81 80 79 77 73 69 66 64 61 59 58 57 55 54 52 51 48
178 181 187 190 181 172 177 184 187 190 192 189 175 167 173 180 179 175 172 166 165 168 173 168 161 159 161 167 171 173 174 175 173 172 172 172 173 171 169 166 164 163 164 165 164 160 157 153 149 145 141 136 131 125 119 112 108 106 104 100 96 92 89 88 89 91 90 90 90 89 85 84 86 88 84 80 78 78 79 78 77 79 83 87 88 88 86 83 80 78 75 72 68 64 61 59 58 58 57 53 52 49 47
185 182 181 189 186 181 185 191 195 196 197 196 184 171 176 189 194 190 184 179 177 174 167 154 147 147 151 159 165 169 172 174 176 176 175 175 175 174 171 167 164 163 164 166 166 164 161 158 154 149 145 140 136 129 119 113 109 109 108 104 97 90 86 86 86 85 85 86 86 85 81 80 85 89 90 86 83 80 80 80 78 78 80 86 91 91 91 86 83 80 75 72 70 69 67 59 56 57 59 56 51 46 42
191 184 178 187 192 192 194 199 202 205 204 203 190 173 174 191 199 196 189 185 181 175 164 152 145 144 149 156 163 168 172 175 178 181 181 180 179 178 174 170 164 162 164 167 169 168 166 163 159 155 151 148 143 135 122 115 111 109 108 107 102 93 88 86 84 83 82 81 81 81 80 81 82 85 87 88 86 85 85 88 88 85 81 85 90 94 94 91 86 80 73 68 70 73 72 58 51 49 53 54 47 39 32
194 189 183 188 194 199 200 203 207 209 207 202 191 178 178 192 199 197 192 187 182 176 165 155 148 146 150 156 163 169 174 178 182 185 187 186 184 181 178 172 166 162 164 169 172 173 172 169 166 162 159 157 153 146 134 127 123 120 113 107 102 97 91 88 85 82 79 77 75 76 78 79 81 81 84 84 87 87 88 90 95 100 97 93 93 95 97 93 88 79 67 59 67 77 77 59 44 37 39 41 33 24 14
194 194 191 193 197 201 203 203 204 205 201 193 186 183 189 195 197 196 191 186 182 176 169 162 155 152 153 158 164 170 176 181 186 189 192 192 190 187 183 177 170 165 165 170 175 178 178 176 173 170 168 167 166 160 152 144 141 138 131 120 111 105 97 91 85 78 74 73 71 70 70 73 74 77 80 80 85 90 87 92 94 102 116 119 117 111 107 103 94 75 50 34 61 94 93 61 36 21 18 12 4 357 351
195 196 196 197 199 202 202 199 199 198 193 185 184 189 197 198 197 194 189 184 179 176 172 169 164 160 158 161 165 171 177 183 188 192 195 196 196 193 188 183 176 170 168 172 178 182 184 183 182 180 178 178 178 176 171 161 157 154 149 141 132 124 115 108 97 81 68 65 64 63 62 60 61 63 65 66 73 82 79 81 91 100 123 153 167 176 175 189 207 254 289 299 286 201 153 108 29 350 334 334 333 332 334
197 198 199 200 201 202 200 197 195 193 190 186 186 192 198 197 194 190 185 181 177 175 174 174 173 169 167 167 169 174 178 183 188 192 196 199 198 197 194 190 184 176 172 174 180 186 189 190 190 189 189 189 190 191 191 184 176 171 167 161 154 147 139 134 124 103 71 58 53 52 51 47 45 44 43 43 44 53 68 251 247 231 223 220 226 231 234 238 246 259 275 288 289 267 221 215 248 277 293 304 312 317 320
199 200 201 201 202 202 200 196 194 192 191 189 189 191 193 193 192 187 183 180 178 176 177 177 178 178 178 178 179 182 185 188 190 194 198 199 199 199 198 196 191 184 177 176 181 188 193 196 198 199 200 201 203 206 209 207 201 195 190 185 179 174 168 165 161 144 101 65 47 39 38 31 26 21 23 25 23 18 11 295 229 234 244 235 235 244 250 257 261 266 272 282 289 285 261 246 252 268 280 289 299 305 308
201 201 202 202 202 201 200 197 195 193 192 191 190 189 188 188 188 187 184 182 181 180 181 181 182 185 188 190 191 194 196 197 199 200 201 200 200 198 198 198 196 191 184 180 181 188 194 200 204 208 210 213 217 221 224 225 222 217 212 209 207 208 214 228 245 254 249 255 19 16 11 3 356 350 353 349 349 347 348 327 288 261 253 244 247 251 256 261 266 268 270 273 279 284 281 268 263 268 276 283 290 295 299
202 202 202 201 201 201 200 199 197 195 192 190 189 187 185 185 186 188 188 187 185 185 185 184 186 190 195 199 201 201 204 206 208 209 208 204 200 197 197 198 198 195 188 183 183 187 195 202 209 214 219 224 228 231 233 233 233 230 228 227 230 239 253 267 276 278 273 265 265 289 315 319 309 305 313 307 301 305 309 314 306 290 273 258 252 254 259 262 265 268 268 269 272 276 279 277 274 274 277 282 286 289 293
204 203 202 201 200 201 201 201 199 196 192 189 187 185 184 185 187 189 192 193 192 192 191 191 192 196 201 205 204 205 207 209 211 213 212 208 201 197 195 197 197 197 193 188 186 189 196 203 210 217 224 230 234 236 237 237 237 237 238 241 247 257 266 275 281 282 279 269 260 256 266 280 281 278 281 285 286 288 293 293 294 292 285 273 263 260 262 264 264 264 265 267 268 269 272 273 275 278 280 282 284 286 288
206 205 203 201 200 200 201 201 200 196 192 189 187 186 186 187 189 192 195 197 198 198 199 199 201 205 211 207 204 203 205 208 211 214 213 209 202 197 194 195 197 197 196 193 192 193 198 203 209 216 226 233 237 239 240 240 240 241 244 249 255 263 270 277 281 283 280 271 262 254 251 254 256 259 272 276 277 277 282 284 284 285 286 282 274 269 267 267 267 265 262 263 264 265 266 269 271 273 277 279 281 283 284
207 206 204 202 201 201 201 201 199 195 191 190 189 188 188 190 192 195 197 199 201 202 203 206 209 213 214 208 204 203 203 206 208 211 212 209 204 198 195 195 196 198 199 198 198 200 203 206 210 216 226 236 242 243 242 243 244 245 249 254 260 266 272 277 281 282 280 273 266 260 256 254 251 251 257 265 268 271 274 277 280 281 281 281 279 274 271 271 271 269 264 262 262 262 264 265 267 270 272 275 276 277 279
207 206 205 204 203 202 202 200 198 194 192 191 191 191 192 193 195 197 199 202 204 205 207 209 211 216 218 211 207 205 204 205 207 209 210 209 205 202 198 196 197 200 202 204 206 208 211 214 218 225 236 249 255 252 249 247 248 250 254 259 264 269 273 277 280 280 279 275 271 266 263 260 257 255 252 256 260 263 265 269 272 276 278 279 279 277 275 273 272 271 267 264 262 262 263 264 266 268 270 271 271 272 275
208 207 207 206 204 203 201 199 197 194 193 193 194 194 195 197 198 200 201 203 206 208 209 211 214 217 221 219 214 210 208 207 208 207 209 208 207 205 202 201 201 203 206 210 215 220 222 224 228 236 247 258 265 264 258 253 253 255 259 265 270 274 277 279 280 281 280 279 276 273 270 267 264 260 258 257 257 258 259 261 265 268 272 275 277 277 277 275 273 271 269 266 264 262 263 264 265 267 268 269 270 270 271
208 208 208 207 205 203 201 198 196 194 194 195 196 197 198 200 201 202 203 205 207 210 211 212 214 218 224 229 226 219 214 213 212 210 208 208 209 208 207 205 206 208 212 217 223 229 232 235 238 244 252 260 266 266 265 262 260 263 269 276 282 286 287 286 285 284 283 282 280 279 276 273 271 267 264 261 259 258 258 258 258 260 263 268 271 274 276 276 275 274 271 268 266 264 264 264 266 267 267 268 268 269 269
208 209 209 207 205 203 200 197 195 195 196 197 198 200 201 202 204 205 206 207 208 210 213 214 216 221 228 235 235 229 223 219 217 215 211 210 210 210 209 210 211 213 217 222 229 235 239 241 244 248 254 260 265 267 267 266 267 270 277 285 292 297 297 296 293 290 288 285 283 281 280 278 276 274 270 267 265 263 262 260 259 258 259 260 263 266 271 274 275 275 274 272 269 267 266 266 266 267 267 268 268 269 269
207 208 208 207 205 203 200 197 196 196 197 199 200 202 203 205 206 207 208 209 210 212 214 215 218 223 229 236 238 236 230 225 222 219 217 214 212 211 211 212 214 217 221 226 232 238 242 245 248 251 255 260 265 268 269 269 271 274 279 286 294 299 302 301 299 295 291 288 285 282 280 280 279 278 277 275 272 271 269 267 265 263 261 260 260 260 264 268 273 276 276 275 273 271 269 269 268 268 268 269 269 270 271
207 208 208 207 205 202 199 198 197 197 198 200 202 204 205 207 209 210 211 211 211 213 215 218 220 223 229 235 237 235 231 228 224 222 221 219 217 215 214 215 217 220 224 230 235 240 245 248 251 253 256 260 263 267 269 271 272 275 279 284 291 297 301 302 301 298 294 290 286 283 281 281 282 282 283 281 279 278 276 275 274 272 270 268 266 264 263 265 269 273 276 276 275 274 272 271 270 270 270 270 271 271 272
208 209 209 208 205 202 201 200 199 199 200 201 203 205 207 209 211 213 213 212 212 213 215 219 223 226 232 238 240 236 231 229 226 223 223 222 221 220 219 219 221 224 228 233 238 243 248 251 253 255 257 260 262 265 267 271 273 275 278 282 287 292 296 299 299 298 295 291 287 284 283 283 284 285 285 285 284 283 281 280 280 279 278 277 275 272 269 267 267 270 274 275 276 275 274 273 272 271 271 271 271 272 273
210 210 210 209 206 204 203 202 201 201 202 203 204 206 209 211 213 215 215 214 213 214 215 219 225 230 236 243 246 242 236 232 228 226 225 225 225 225 225 225 227 229 233 237 242 247 250 252 254 256 257 259 261 263 266 269 272 275 278 281 285 289 291 293 295 295 294 291 287 284 283 283 284 286 287 287 286 285 284 283 282 282 282 281 281 279 276 272 269 269 271 273 274 274 274 274 273 272 271 271 272 272 273
213 213 213 211 209 207 205 205 204 204 205 205 206 208 210 213 215 217 218 217 215 215 216 219 223 230 236 244 249 249 244 237 233 230 227 227 227 229 230 231 233 235 238 242 246 249 252 253 254 255 256 258 259 262 264 267 270 274 277 281 284 286 287 289 291 291 291 289 286 284 282 283 283 284 286 286 286 286 285 285 284 283 283 283 283 282 281 277 273 270 269 270 272 273 273 273 273 272 272 272 272 272 274
217 216 216 215 212 210 209 208 208 208 208 208 209 210 212 214 216 218 218 218 218 217 217 220 223 228 234 242 249 252 251 247 240 234 231 229 229 231 234 236 238 241 244 247 249 251 252 253 253 254 256 257 259 262 264 266 269 272 277 279 281 283 285 286 287 288 288 287 286 284 282 282 282 283 284 285 285 286 286 286 286 286 285 285 284 284 283 282 278 274 271 270 269 270 272 272 272 272 273 273 273 274 275
219 220 220 219 217 215 213 212 211 211 211 211 211 212 213 215 217 218 218 217 218 219 220 221 224 228 234 240 247 252 256 255 249 241 235 231 231 233 236 239 242 246 249 251 253 254 254 255 254 255 256 257 259 262 264 266 269 272 274 276 278 280 282 283 284 285 286 286 285 284 283 283 283 283 284 284 285 286 286 287 287 287 287 287 286 286 285 284 282 279 275 272 270 269 270 270 272 273 274 275 275 276 277
220 221 222 222 221 219 217 215 215 214 214 214 213 213 214 216 217 218 217 217 218 220 222 223 224 228 234 242 247 251 254 255 252 245 239 234 233 234 237 240 244 248 251 254 256 256 257 257 256 256 256 258 259 261 263 265 268 270 272 274 276 278 280 281 282 283 284 285 285 285 284 284 284 284 284 285 285 286 287 288 288 288 288 288 288 288 287 286 285 283 280 277 274 272 270 270 271 274 275 277 278 278 279
220 221 223 223 223 222 220 219 218 217 217 216 215 215 216 216 217 217 217 217 217 219 222 224 226 229 234 242 247 250 250 250 247 243 240 239 238 238 239 242 245 249 252 255 257 258 258 258 258 258 258 259 260 261 263 265 267 269 270 273 275 277 278 279 280 281 283 284 284 284 284 284 284 284 284 285 286 287 288 288 289 289 289 289 289 289 289 288 288 286 284 281 278 275 273 272 273 275 276 279 280 281 282
219 221 223 223 224 224 223 221 220 220 219 218 217 217 217 216 217 218 218 218 218 219 221 224 227 231 236 240 245 248 248 247 243 240 239 240 242 243 244 246 249 251 253 255 256 258 259 259 259 260 260 260 261 262 264 265 267 268 270 273 274 275 276 278 279 281 282 283 283 283 283 284 284 284 285 285 286 287 288 288 289 290 290 291 291 291 291 290 290 289 287 285 283 280 277 275 274 275 277 280 282 284 284
219 221 222 224 225 225 224 223 221 221 220 220 219 218 218 218 219 219 219 220 221 221 222 223 226 231 236 240 243 245 246 244 240 237 236 238 245 250 253 255 256 257 256 256 257 258 260 260 261 261 262 262 263 264 265 266 267 268 271 272 272 274 275 276 278 279 280 280 281 282 282 282 283 284 285 286 286 287 288 289 290 291 292 292 293 293 293 293 292 291 290 289 287 284 281 278 276 276 278 280 283 285 286
218 220 222 224 225 226 226 224 222 221 221 221 221 220 220 220 221 221 221 221 221 221 220 221 224 229 233 239 243 245 245 242 236 230 229 235 246 258 266 268 269 270 270 266 263 261 261 261 262 263 263 264 264 264 265 265 266 268 269 270 271 273 275 276 277 278 278 279 280 281 281 282 283 285 286 287 288 289 289 290 291 292 293 294 294 295 295 294 294 293 292 291 290 287 285 282 279 278 278 281 284 286 287
217 219 221 223 225 225 225 223 221 221 221 221 221 221 221 221 221 221 221 221 221 220 218 217 221 228 232 236 240 243 244 241 233 222 204 213 225 225 58 337 310 287 278 275 269 263 262 261 262 263 264 263 263 262 263 264 265 266 268 269 270 272 274 275 276 277 278 279 280 281 282 283 285 286 288 289 290 290 291 292 293 294 294 295 295 296 296 295 295 295 294 293 292 290 287 284 282 281 281 282 284 286 288
217 218 220 222 224 224 223 222 221 220 219 219 220 220 221 221 221 221 221 222 221 221 221 218 219 225 230 232 235 239 241 238 232 224 209 187 180 183 191 353 353 346 338 331 295 264 259 259 261 263 262 261 261 260 261 262 263 265 267 269 270 272 274 275 277 278 279 280 281 282 283 285 286 288 289 290 291 292 293 294 294 295 295 296 296 296 296 296 296 296 295 294 293 291 289 286 285 284 284 284 285 286 287
218 218 219 221 222 222 222 221 220 218 217 216 216 217 219 219 220 220 221 221 222 222 223 223 221 220 225 229 232 234 237 235 231 226 223 211 181 157 149 50 43 338 342 352 336 317 290 273 268 268 267 265 264 263 262 262 263 266 268 270 272 274 275 277 278 279 280 281 282 284 285 286 287 289 290 291 292 293 294 295 295 296 296 296 296 296 296 296 296 296 295 294 294 292 291 290 288 287 286 286 286 286 288
218 219 219 220 221 221 221 221 219 218 216 215 215 216 218 219 219 220 221 221 221 221 222 224 224 221 220 225 230 232 234 234 230 226 225 225 214 154 81 74 103 153 128 106 23 318 314 325 320 304 292 282 276 273 271 269 269 271 272 274 276 277 278 279 280 281 282 283 285 287 288 289 289 290 290 291 293 294 295 296 296 296 296 296 296 295 295 295 295 295 295 294 294 295 294 293 291 289 287 286 285 285 287
219 219 220 220 220 220 220 220 219 217 216 216 216 216 218 218 219 220 220 221 222 222 222 223 223 223 220 222 228 232 233 234 231 227 225 228 224 211 153 114 90 46 31 55 94 224 263 304 314 309 306 304 305 304 299 294 290 288 285 284 284 284 284 284 284 285 287 289 291 292 292 292 293 292 292 293 294 295 296 297 297 297 296 296 295 295 294 294 294 294 294 294 295 296 296 295 292 289 286 285 283 284 286
219 219 219 219 219 219 220 220 219 218 216 216 216 217 219 220 221 222 222 223 224 224 224 223 224 225 225 225 227 231 234 234 232 229 225 226 226 225 221 182 136 105 25 1 266 236 246 314 328 312 299 322 344 348 343 337 330 322 315 310 305 302 300 298 297 297 298 299 299 299 300 299 299 298 299 299 299 299 299 299 299 298 297 296 295 294 294 293 293 292 292 292 293 295 295 293 290 286 283 281 283 287 289
218 218 218 218 219 219 220 220 220 218 217 216 216 217 220 222 222 223 223 224 224 225 226 226 226 227 229 228 229 231 232 231 231 231 228 225 226 228 228 230 221 200 196 190 214 220 179 75 57 340 304 316 322 324 325 325 327 330 332 331 329 326 322 319 315 314 313 312 311 310 310 309 308 308 309 308 307 307 306 304 303 302 301 300 298 297 295 294 293 291 290 289 290 291 293 291 288 284 280 281 287 292 292
217 216 216 217 218 218 219 220 220 219 218 217 217 217 219 221 222 222 223 224 226 227 228 228 228 228 229 230 230 230 231 229 228 229 229 229 228 229 231 233 236 239 244 236 231 201 124 83 83 135 303 314 308 303 306 309 312 315 318 320 320 319 318 317 317 316 316 316 316 315 314 314 314 315 315 313 312 311 310 309 308 307 306 304 302 300 298 296 295 293 290 288 287 287 288 287 285 282 280 286 294 297 293
215 215 215 215 216 217 218 219 219 219 219 218 217 216 217 220 222 224 226 227 229 229 229 229 230 230 230 229 228 227 229 233 232 229 227 228 230 231 233 234 237 240 243 248 254 255 238 159 146 170 58 326 311 305 304 305 305 306 306 307 307 307 306 307 307 308 309 309 310 310 311 312 313 314 314 313 312 311 310 309 309 309 308 307 306 304 302 301 299 296 293 289 286 284 284 284 283 281 283 291 298 298 291
214 213 213 213 214 215 216 217 218 219 219 218 216 215 216 220 224 227 229 230 231 231 231 230 231 232 232 230 228 227 228 234 237 234 226 220 226 234 235 234 236 239 242 247 252 257 260 250 230 202 141 269 301 310 308 303 301 302 301 301 301 301 300 300 301 302 303 305 306 307 308 310 312 313 314 314 314 312 311 310 310 311 311 312 312 311 310 308 306 304 300 294 289 286 284 283 281 281 284 293 298 296 290
212 211 210 211 212 213 213 214 215 217 218 218 216 216 218 221 225 228 229 230 231 232 232 232 232 232 233 232 231 231 232 234 237 236 233 222 223 236 235 235 236 239 242 245 250 256 260 262 261 256 243 216 252 294 296 300 304 306 305 303 301 300 300 300 302 303 305 307 309 310 311 313 314 317 318 318 317 316 314 314 314 315 316 316 316 315 315 314 314 314 312 306 300 293 287 283 279 279 284 293 297 295 289